STARLINK-37041, 68104

Orbit data source: Space-Track

STARLINK-37041, 68104 is a payload satellite owned by SpaceX/Seattle (US) in SSO that was launched on Sun, 08 Mar 2026 UTC via an FALCON 9 launch vehicle from the Air Force Western Test Range (AFWTR). Payload-class satellites include a variety of spacecraft equipped with specific instruments for various scientific and technological missions. These include communications satellites like Starlink; space stations such as the ISS; scientific satellites like the Hubble; Earth observation satellites from companies like Planet Labs, Umbra, and HawkEye 360; GPS; miniature CubeSats for education and research; and military/defense satellites.

Loading next visibility...
Identifier
68104, 2026-044D
Orbit
SSO
Country
Flag of USUS
Related business
Manufacturer
SpaceX/Seattle
Mission
Operational spacecraft
Bus & Motor
STARLINK V2MO, Unknown motor
Mass
575 kg wet, ~530 kg dry
Launch date (UTC)
2026-03-08 (3 months ago)
Launch vehicle
FALCON 9
Launch site
Air Force Western Test Range (AFWTR)
Object type
Payload
Rocket body
Debris
Shape & HBR
Unknown shape, 17.7 m
Radar Cross Section
Large (>1 m²)

Expand to show TLE details & history
Last TLE update: 10 hours ago

TLE from 10 hours ago
0 STARLINK-37041
1 68104U 26044D   26171.42104181  .00007075  00000-0  22127-3 0  9999
2 68104  97.2850 131.6282 0001720 115.1187 245.0234 15.33445872 17324
Epoch: 2026-06-20T10:06Z
TLE epoch observation values (Epoch: 2026-06-20T10:06:18.012Z)
Latitude
-0.00005°
Longitude
71.41725°
Altitude
469.15 km
Speed
7.631 km/s
True Right ascension
08h 46m 30s
True Declination
0° 00' 00"
Sunlit
Object was in daylight at epoch
Visualization orbit readout
Latitude
Unknown
Longitude
Unknown
Altitude
Unknown
Speed
Unknown
Apparent Right ascension
Unknown
Apparent Declination
Unknown
Sunlit
N/A
Visualization observer readout
Local Sidereal Time
07:21:57
Azimuth
Unknown
Elevation
Unknown
Doppler factor
Unknown
Orbital elements
Apogee altitude
463.66 km
Perigee altitude
461.307 km
Semi-major axis
6,840.62 km
Eccentricity
0.00017
Inclination
97.285°
RAAN
131.6282°
Arg. of periapsis
115.1187°
True anomaly
245.00554°
Mean anomaly
245.0234°
Eccentric anomaly
245.01447°
Mean motion
3.83619 °/min
Orbital period
93.84 mins
BSTAR
0.00022127
Loading maneuver chart data...
Computing Atmospheric mass density...
Loading historical data...
Loading historical data...
Loading historical data...
Loading historical data...
Loading historical data...
Loading historical data...
Loading historical data...

Documentation

Showing up to 5 results
|